Regional Weather Roundup
Issued by NWS

Home | Current Version | Previous Version | Text Only | Print | Product List | Glossary On
Versions: 1 2 3 4 5 6 7 8 9 10 11 12 13 14 15 16 17 18 19 20 21 22 23 24 25 26 27 28 29 30 31 32 33 34 35 36 37 38 39 40 41 42 43 44 45 46 47 48 49 50
000
ASUS45 KREV 171710
RWRNV
NEVADA REGIONAL WEATHER ROUNDUP
NATIONAL WEATHER SERVICE RENO NV
1000 AM PDT WED SEP 17 2014

NOTE: "FAIR" INDICATES FEW OR NO CLOUDS BELOW 12,000 FEET WITH NO
SIGNIFICANT WEATHER AND/OR OBSTRUCTIONS TO VISIBILITY.

NVZ001-003-004-171800-
WESTERN NEVADA

CITY           SKY/WX    TMP DP  RH WIND       PRES   REMARKS
RENO           PTSUNNY   83  35  18 S17G25    29.96F
MINDEN         FAIR      79  36  21 S14G22    30.01S
SLIDE MTN        N/A     54  36  50 S17         N/A
FALLON         MOSUNNY   80  31  16 SE3       29.94F SMOKE
LOVELOCK       SUNNY     79  36  21 CALM      29.95S HAZE
HAWTHORNE      SUNNY     79  37  22 CALM      29.97F
$$

NVZ002-CAZ072-073-171800-
NORTHERN AND CENTRAL SIERRA

CITY           SKY/WX    TMP DP  RH WIND       PRES   REMARKS
S. LAKE TAHOE  SUNNY     73  34  23 SW12G25   30.09S
TRUCKEE        PTSUNNY   73  39  29 S13G25    30.07
SQUAW VLY 8000 NOT AVBL
SUSANVILLE     SUNNY     66  36  32 SW7       29.96
BLUE CANYON    HAZE      70  33  25 S12       30.06R VSB 3/4
MAMMOTH LAKES  FAIR      72  39  30 E8        30.17F
BRIDGEPORT     FAIR      73  31  21 S15G22    30.11S
$$

NVZ030-031-036-171800-
NORTHERN NEVADA

CITY           SKY/WX    TMP DP  RH WIND       PRES   REMARKS
ELKO           MOSUNNY   72  35  25 CALM      30.04F
WINNEMUCCA     MOSUNNY   76  32  20 CALM      29.97F
WENDOVER       SUNNY     77  39  25 E7        29.99S
$$

NVZ035-037-171800-
CENTRAL NEVADA

CITY           SKY/WX    TMP DP  RH WIND       PRES   REMARKS
ELY            SUNNY     75  46  35 VRB5      30.14F
EUREKA           N/A     78  44  29 CALM      30.08F
$$

NVZ013-014-171800-
SOUTH CENTRAL NEVADA

CITY           SKY/WX    TMP DP  RH WIND       PRES   REMARKS
TONOPAH        SUNNY     76  55  48 SE9       30.09S
$$

NVZ017-020-022-171800-
SOUTHERN NEVADA

CITY           SKY/WX    TMP DP  RH WIND       PRES   REMARKS
LAS VEGAS      MOSUNNY   86  60  41 SE6       29.87S
N. LAS VEGAS   SUNNY     85  56  37 CALM      29.90S
NELLIS AFB     SUNNY     85  61  43 SE3       29.88F
HENDERSON      MOSUNNY   85  58  39 VRB5      29.93S
MERCURY        SUNNY     85  53  33 SE13      29.94F
$$


USA.gov is the U.S. government's official web portal to all federal, state and local government web resources and services.